Upstream stations:
Downstream station:
SHEF ID: FLRK1 COTTONWOOD R NR FLORENCE, KS
STATION TYPE:
Regulating: Stage = 21.00, Flow = 9471
PRECIP STAGE STAGE(2) RIV-FLOW BAT-LOAD
in ft ft cfs volt
Ccp-Rev Ccp-Rev Ccp-Rev Ccp-Rev Ccp-Rev
(US/Central)
09/11 00:00 0.00 3.07 2.91 57 13.00
09/11 01:00 0.00 3.07 2.91 57 12.95
09/11 02:00 0.00 3.07 2.91 57 12.95
09/11 03:00 0.00 3.07 2.91 57 12.89
09/11 04:00 0.00 3.07 2.91 57 12.89
09/11 05:00 0.00 3.07 2.91 57 12.89
09/11 06:00 0.00 3.07 2.91 57 12.89
09/11 07:00 0.00 3.07 2.91 57 12.83
09/11 08:00 0.00 3.07 2.91 57 12.83
09/11 09:00 0.00 3.07 2.91 57 12.89
09/11 10:00 0.00 3.06 2.90 54 13.24
09/11 11:00 0.00 3.06 2.91 54 13.48
09/11 12:00 0.00 3.06 2.91 54 13.59
09/11 13:00 0.00 3.06 2.91 54 14.06
09/11 14:00 0.00 3.04 2.91 50 13.53
09/11 15:00 0.00 3.04 2.91 50 13.65
09/11 16:00 0.00 3.04 2.91 50 13.48
09/11 17:00 0.00 3.04 2.91 50 13.83
09/11 18:00 0.00 3.05 2.91 52 13.48
09/11 19:00 0.00 3.04 2.91 50 13.59
09/11 20:00 0.00 3.05 2.91 52 13.18
09/11 21:00 0.00 3.05 2.91 52 13.07
09/11 22:00 0.00 3.03 2.91 47 13.00
09/11 23:00 0.00 3.04 2.91 50 13.00